Погода в Кызыле

Погода в Кызыле : погода сейчас, прогноз погоды и архив. Всё, что Вы хотите узнать о погоде в Кызыле!

Хотите узнать прогноз погоды в Кызыле? Тогда Вам сюда: Погода в Кызыле

Поиск расширенной информации на нашем сайте:

Другие новости

Новости СМИ2

Главная страница сайта

Новости сайта

02.10.2013

Напоминаем, что на нашем новом сайте вы можете получить высокодетализированные прогнозы погоды по пунктам России, СНГ и мира (включающие важные для авиации метеовеличины, такие как направление и скорость ветра, видимость, явления погоды, количество и форма облачности, нижняя и верхняя граница облачности), а также ознакомиться с разнообразными материалами по авиационной метеорологии и подборкой полезных ссылок на эту тему.

Сайт Метеоцентр.Азия посвящён разработке технологий оптимизации авиаметеорологического обслуживания, включая проектирование и перспективное создание нескольких автоматизированных авиаметеорологических систем:
- система выпуска высокодетальных прогностических карт явлений погоды для нижнего воздушного пространства по России и ближнему зарубежью;
- система верификации прогнозов TAF (выпускаемых синоптиками официальных АМСГ РФ и ближнего зарубежья) и AUTOTAF (выпускаемых сайтом Метеоцентр.Азия) - выявление ошибок, онлайн-сопоставление с фактической погодой METAR, автоматическое внесение коррективов в прогнозы при резком отклонении фактической погоды от прогноза, подсчёт оправдываемости прогнозов по элементам и в целом;
- система обработки, анализа и отображения авиаметеорологической информации для применения провайдерами метеорологической информации.


Погода в Кызыле - сегодня

Время (UTC), дата Ветер
(°,м/с) 
Видим.   Явления Облачность Т
(°С)
Тd
(°С)
f(%) Тe
(°С)
Pmin
(гПа)
dP
(гПа)
Po
(мм)
O2
(г/м3)
Тmin Tmax R s Состояние
почвы
09 25.04.17 020 (С) 20000 м    9/5 1000 м кучево-дожд., верхняя 
[Cb cap|Ci fib]
+20 -2.1 22 +20  1017.3  -0.2  709  266           
12 25.04.17 030 (СВ) 20000 м    6/4 1000 м верхняя 
[Sc|Ci fib]
+20.2 -3.9 19 +20  1018  0.7  710  267    +22.4  0.0     
15 25.04.17 010 (С) 10 км    3/0 верхняя 
[Ci fib]
+15.9 -2.7 28 +16  1021.8  2.5  712  271           
18 25.04.17 220 (ЮЗ) 10 км    3/0 верхняя 
[Ci sp]
+12.4 -0.6 41 +12  1024.8  1.9  713  275           
21 25.04.17 230 (ЮЗ) 10 км    ясно 
+9.7 -0.7 48 +10  1027.6  1.9  715  278           
00 26.04.17 060 (СВ) 20000 м    ясно 
+6.9 +0 61 +7  1030.7  2.2  716  281  +5.1        влажная 
03 26.04.17 040 (СВ) 20000 м    ясно 
+14.4 -0.8 35 +16  1029.9  1.1  717  274           
06 26.04.17 150 (ЮВ) 20000 м    ясно 
+19.8 -7 16 +21  1026.5  -1.9  716  269           
09 26.04.17 150 (ЮВ) 20000 м    ясно 
+23.2 -8.1 12 +23  1023.5  -2  714  266           
12 26.04.17 360 (С) 20000 м    ясно 
+22.6 -11.7 9 +23  1021.9  -1.6  713  266    +24.1       
15 26.04.17 тихо ()   10 км    ясно 
+12 -2.7 36 +12  1025.2  0.8  713  276           
18 26.04.17 040 (СВ) 10 км    ясно 
+6.9 -3.4 48 +8  1026.9  0.1  714  281           
21 26.04.17 090 (В) 10 км    ясно 
+4.8 -4.3 52 +4  1027.5  714  283           
00 27.04.17 090 (В) 20000 м    ясно 
+5.8 -4.3 48 +6  1027.5  0.2  714  282  +3        замёрзшая 
03 27.04.17 360 (С) 20000 м    ясно 
+14.9 -5.7 24 +16  1024.6  -0.4  713  273           
06 27.04.17 150 (ЮВ) 20000 м    ясно 
+22.6 -6.9 13 +23  1019.5  -2.9  711  265           
09 27.04.17 160 (Ю) 20000 м    ясно 
+26.4 -6.2 11 +26  1015.2  -3.1  709  261           
12 27.04.17 180 (Ю) 20000 м    ясно 
+25.3 -6.2 12 +25  1013.4  -1.9  707  261    +27       
15 27.04.17 070 (В) 10 км    ясно 
+16.3 -0.7 31 +18  1016.6  0.9  708  269           
18 27.04.17 020 (С) 10 км    ясно 
+11.7 -1 41 +12  1017.9  0.3  708  274           
21 27.04.17 030 (СВ) 10 км    ясно 
+8.9 -1.9 47 +9  1019  0.3  708  277           
00 28.04.17 360 (С) 20000 м    1/1 1000 м 
[Sc]
+8 -1.1 53 +8  1020.2  0.9  709  278  +7.9        сухая 
03 28.04.17 350 (С) 20000 м    ясно 
+16.9 -0.8 30 +18  1017.4  -0.4  709  269           
06 28.04.17 340 (С) 20000 м    3/3 1000 м 
[Cu hum]
+24.1 -2.8 17 +24  1013.6  -1.9  707  262           
09 28.04.17 300 (СЗ) 22  20000 м    4/4 1000 м 
[Cu hum]
+26 -7.6 10 +26  1010.7  -2.3  706  260           
Время (UTC), дата Ветер
(°,м/с) 
Видим.   Явления Облачность Т
(°С)
Тd
(°С)
f(%) Тe
(°С)
Pmin
(гПа)
dP
(гПа)
Po
(мм)
O2
(г/м3)
Тmin Tmax R s Состояние
почвы

Для получения пояснительной информации подведите курсор к названию столбца.

ПОГОДА в Кызыле - архив

Всё, что Вы хотите узнать о погоде в Кызыле - удобно и подробно!

Выберите нужную дату (начиная с 1 января 2015* года) и нажмите кнопку "Найти".
Будут отображены архивные сводки погоды по пункту Кызыл, начиная с указанной даты.


Отображать данные в формате CSV (для использования в таблицах Excel)


Внимание! Наш архив погоды предназначен исключительно для личного некоммерческого использования в познавательных целях. Если Вам необходимы официальные справки о состоянии погоды (для производственных, юридических, коммерческих и т.п. целей), обращайтесь в органы Росгидромета.

*Примечание: данная дата относится к архиву по метеостанциям СССР (Россия, СНГ, Балтия).
Архив по метеостанциям Зарубежной Европы и Азии (кроме Китая) хранится 10 дней, по другим регионам земного шара (Китай, Африка, Америка, Австралия, Океания) - 1 день.

Кызыл - район местоположения метеостанции


Название, широта, долгота, высота метеостанции:
Кызыл 51.7°ш. 94.5°д. 628 м над ур. моря [Российская Федерация]

Дополнительная информация

В oтличие oт бoльшинства пoгoдных сайтoв мы публикуем пoдрoбную метеoинфoрмацию в детальнoм прoфессиoнальнoм фoрмате.

Характеристики температуры и влажнoсти вoздуха измеряются на высoте 2 м в тени вдали oт зданий и деревьев.
Скoрoсть ветра измеряется на высoте 10 м (на урoвне рoста челoвека скoрoсть ветра ниже в 1.5-2 раза). Если метеoстанция нахoдится в гoрoде или в лесу, тo скoрoсть ветра занижена на 2-4 м/с пo сравнению с oткрытым местoм. Скoрoсть ветра над акватoриями крупных рек и oзёр, а также на вершинах хoлмoв на 2-5 м/с выше, чем в oбычных услoвиях.
Атмoсфернoе давление в разных тoчках местнoсти мoжет значительнo oтличаться oт давления на метеoстанции, в зависимoсти oт услoвий рельефа (при пoдъёме на 10 м давление пoнижается примернo на 1 мм рт.ст.).